Flag for Canada Weather past 2 weeks in Ottawa, Ontario, Canada

Now
66 °F

Clear.


Feels Like: 66 °F
Forecast: 63 / 85 °F
Wind: 3 mph from Southwest

Location: Ottawa Int'L. Ont.

Current Time: Sep 2, 2015 at 1:38:08 AM

Latest Report: Sep 2, 2015 at 1:00 AM


Visibility: 7 mi

Pressure: 30.00 "Hg

Humidity: 100%

Dew point: 66 °F

Location of OttawaLocation

Historic Weather in Ottawa — Graph

°F

Ottawa temperature yesterday

Maximum temperature yesterday: 82 °F (at 3:00 PM)
Minimum temperature yesterday: 55 °F (at 7:00 AM)
Average temperature yesterday: 69 °F

Past Weeks' High & Low Weather Summary

 TemperatureHumidityPressure
High88 °F (Aug 18, 3:00 PM)100% (Aug 18, 5:00 AM)30.20 "Hg (Aug 18, 5:00 AM)
Low48 °F (Aug 28, 6:00 AM)44% (Aug 22, 5:00 PM)29.77 "Hg (Aug 20, 6:00 PM)
Average68 °F81%29.99 "Hg
* Reported Midnight between Aug 17 and Aug 18 — Midnight between Sep 1 and Sep 2, Ottawa, Weather by CustomWeather, © 2015

Note: Actual official high and low records may vary slightly from our data, if they occured in-between our weather recording intervals... More about our weather records

Advertising

Ottawa weather history for previous 24 hours

 ConditionsComfort  
Time TempWeatherWind HumidityBarometerVisibility
12:00 AM
Wed, Sep 2
68 °FClear.5 mph94%30.00 "Hg8 mi
11:00 PM
Tue, Sep 1
68 °FClear.7 mph94%30.00 "Hg15 mi
10:00 PM70 °FClear.7 mph88%30.00 "Hg15 mi
9:00 PM70 °FClear.6 mph94%30.00 "Hg15 mi
8:00 PM73 °FSunny.6 mph83%30.00 "Hg15 mi
7:00 PM77 °FPassing clouds.7 mph74%29.98 "Hg15 mi
6:00 PM81 °FPassing clouds.8 mph70%29.98 "Hg15 mi
5:00 PM82 °FPassing clouds.8 mph58%29.98 "Hg15 mi
4:00 PM82 °FPassing clouds.9 mph62%29.99 "Hg15 mi
3:00 PM82 °FScattered clouds.12 mph62%30.00 "Hg15 mi
2:00 PM81 °FBroken clouds.9 mph66%30.02 "Hg15 mi
1:00 PM79 °FScattered clouds.7 mph65%30.03 "Hg10 mi
12:00 PM77 °FScattered clouds.7 mph65%30.04 "Hg8 mi
11:00 AM73 °FPassing clouds.3 mph78%30.06 "Hg8 mi
10:00 AM66 °FFog.No wind94%30.06 "Hg6 mi
9:00 AM63 °FFog.2 mph100%30.06 "Hg2 mi
8:49 AM63 °FFog.2 mph94%30.06 "Hg1 mi
8:00 AM59 °FFog.2 mph100%30.07 "Hg0 mi
7:00 AM55 °FFog.2 mph100%30.06 "Hg1 mi
6:00 AM57 °FFog.2 mph100%30.04 "Hg1 mi
5:00 AM57 °FFog.3 mph94%30.03 "Hg3 mi
4:00 AM59 °FClear.No wind94%30.03 "Hg8 mi
3:00 AM61 °FFog.3 mph100%30.02 "Hg8 mi
2:00 AM61 °FPassing clouds.5 mph94%30.01 "Hg8 mi
1:00 AM59 °FLight fog.6 mph100%30.01 "Hg8 mi
Weather by CustomWeather, © 2015

See weather overviewHow to use our weather pages